Dewpoint
62 62 60 59 58 59 58 57 55 56 56 55 54 54 52 53 51 51 52 51 51 50 48 48 47 46 44 43 43 40 41 43 42 43 43 43 43 45 44 45 45 42
62 61 60 59 58 57 57 57 56 55 55 55 54 53 53 53 52 52 52 50 49 48 48 47 46 44 43 41 43 42 41 43 42 41 42 42 42 44 45 45 44 42
61 60 59 58 57 57 57 56 55 54 54 53 54 53 53 53 52 52 51 50 49 48 48 46 46 44 42 42 42 42 42 42 42 42 42 42 41 42 43 42 42 43
60 60 58 57 57 57 56 55 54 54 54 53 53 52 52 53 52 51 50 49 48 48 47 46 45 43 41 42 43 41 42 41 41 42 41 41 41 41 42 41 41 40
59 58 57 56 55 55 54 53 53 52 53 53 52 51 51 52 51 50 49 49 48 47 47 45 44 44 43 43 42 41 41 40 41 41 40 40 42 41 41 40 40 39
59 56 55 55 54 53 52 51 50 51 52 53 51 49 50 50 48 48 48 48 47 46 45 45 43 43 43 42 42 42 41 40 40 40 38 39 40 40 39 39 39 38
57 56 55 54 53 52 51 51 51 52 51 51 49 49 49 48 48 47 46 47 46 45 44 44 43 44 43 43 42 41 40 40 39 37 37 38 39 39 37 38 36 35
58 56 54 53 53 52 51 50 50 52 52 50 50 48 47 45 46 47 46 46 44 43 43 42 42 42 43 42 40 40 41 41 40 37 38 38 39 37 38 38 38 36
56 54 53 53 52 52 51 50 51 52 50 49 48 47 47 46 46 46 45 44 43 43 42 41 42 41 42 41 40 40 39 41 40 39 39 39 38 37 34 36 37 38
54 53 53 52 52 52 51 51 51 50 50 49 47 47 46 47 46 44 44 44 43 42 42 41 42 42 40 38 37 38 38 38 38 40 39 38 37 36 35 36 36 37
53 53 53 53 52 52 52 52 51 50 50 46 47 46 46 46 45 44 43 43 44 42 41 41 41 40 39 38 39 39 38 39 38 38 39 38 38 38 37 37 37 37
53 53 52 52 52 52 52 51 51 50 48 47 44 44 46 45 44 43 43 41 41 41 41 40 40 40 38 38 38 39 40 40 40 40 39 38 38 38 37 38 39 37
53 53 52 52 52 52 51 50 49 50 47 44 44 44 45 44 43 43 44 42 41 41 41 41 40 40 40 40 39 39 39 39 40 40 39 40 39 37 37 38 38 38
53 53 53 52 52 51 49 49 48 48 46 45 44 44 44 42 42 43 44 42 42 41 42 42 41 40 40 39 39 40 41 40 41 41 40 41 41 39 39 38 39 39
53 53 52 52 50 49 49 49 48 47 46 45 45 45 45 43 43 43 43 42 42 43 41 42 43 42 42 41 40 39 41 41 41 39 40 40 40 39 40 38 39 39
53 52 50 50 49 49 48 50 47 47 46 45 46 45 45 43 42 44 41 43 42 42 43 44 44 44 45 43 41 40 41 41 41 41 40 40 40 40 40 40 39 40
50 49 49 48 48 47 47 47 48 46 44 44 46 44 45 44 43 42 42 42 41 42 43 44 44 45 41 39 39 40 42 42 41 41 41 40 40 40 40 40 40 38
49 48 47 47 47 45 46 47 47 47 45 44 45 46 45 44 44 43 45 43 43 42 44 44 45 44 38 39 38 38 41 45 42 41 41 41 40 39 38 39 40 40
47 47 46 46 45 46 47 45 43 42 42 43 45 47 47 45 42 44 43 43 43 42 43 44 46 39 38 38 38 38 38 41 39 41 39 40 40 38 38 38 39 39
47 46 45 45 45 45 45 44 44 41 44 44 43 42 41 41 41 43 43 43 43 43 43 44 46 40 38 38 38 38 38 38 39 39 41 39 38 37 39 39 39 38
46 46 45 44 43 44 43 42 42 43 41 41 40 37 38 40 42 43 43 44 43 43 43 44 45 38 38 38 38 37 37 37 41 40 40 40 39 40 40 40 39 37
46 45 45 44 43 43 42 41 42 41 42 42 41 39 40 39 40 41 43 43 44 44 44 44 44 37 37 37 37 36 37 40 40 40 38 38 39 40 39 39 37 36
46 45 45 44 43 42 41 41 42 42 43 43 41 40 39 39 40 42 43 43 43 43 43 42 40 38 36 36 36 36 37 37 38 34 36 38 39 40 38 38 37 34
45 45 44 43 42 41 41 42 43 43 43 42 40 38 38 38 40 40 40 41 42 42 42 41 39 39 36 36 36 36 37 34 31 33 36 37 39 39 38 36 36 42
46 45 44 43 42 42 43 42 42 42 42 41 39 39 38 38 37 39 40 40 41 41 43 42 40 38 36 36 36 35 37 36 31 32 35 38 37 37 38 35 34 34
46 46 45 43 43 42 41 41 41 41 41 39 38 36 35 37 37 37 39 39 40 42 41 41 40 38 38 36 36 35 35 39 33 32 34 36 35 33 34 34 34 35